Location: Lahitte
(43.6596°N, 0.6805°E)
Time: 21:23:43
(UTC+00:00)

Cosmos 2360 Rocket - Pass Details

Date: 15 May 2026
Orbit: 831 x 845 km, 71.0° (Epoch: 10 June)

Event Time Altitude Azimuth Distance (km) Brightness Sun altitude
Rises 21:45:53 0° 334° (NNW) 3,414 6.9 -20.8°
Reaches altitude 10° 21:48:21 10° 333° (NNW) 2,475 5.8 -21.0°
Maximum altitude 21:54:02 81° 248° (WSW) 861 2.2 -21.6°
Enters shadow 21:55:50 45° 168° (SSE) 1,134 2.4 -21.7°
